Temperature
14 14 14 14 14 14 15 15 15 15 15 15 15 15 15 15 15 15 15 15 15 15 15 15 15 15 15 15 15 15 15 15 15 15 15 15 15 15 15 15 15 15 15
13 14 14 14 14 14 14 15 15 15 15 15 15 15 15 15 15 15 15 15 15 15 15 15 15 15 15 15 15 15 15 15 15 15 15 15 15 15 15 15 15 15 15
13 13 14 14 14 14 14 14 15 15 15 15 15 15 15 15 15 15 15 14 15 15 15 15 15 15 15 15 15 15 15 15 15 15 15 14 15 15 15 15 15 15 15
13 13 13 14 14 14 14 14 14 14 14 15 15 15 15 15 14 14 14 14 14 14 15 14 14 15 15 15 15 15 15 15 15 15 14 14 14 15 15 15 15 15 15
13 13 13 13 13 14 14 14 14 14 14 14 14 14 14 14 14 14 14 14 14 14 14 14 14 14 14 14 15 15 15 15 15 14 14 14 14 14 14 14 14 14 14
13 13 13 13 13 13 13 14 14 14 14 14 14 14 14 14 14 14 14 14 14 14 14 14 14 14 14 14 14 14 14 14 14 14 14 14 14 14 14 14 14 14 14
12 13 13 13 13 13 13 13 13 13 13 13 14 14 14 14 14 14 14 14 14 14 14 14 14 14 14 14 14 14 14 14 14 14 14 14 14 14 14 14 14 14 14
12 12 12 12 13 13 13 13 13 13 13 13 13 13 13 13 14 14 14 14 14 14 14 14 14 14 14 14 14 14 14 14 13 13 13 13 14 14 14 14 14 14 14
12 12 12 12 12 12 12 12 12 12 12 13 13 13 13 13 13 13 13 13 13 13 13 13 14 14 14 14 14 14 14 14 13 13 13 13 13 14 14 13 13 14 14
11 11 11 12 12 12 12 12 12 12 12 12 12 12 12 13 13 13 13 13 13 13 13 13 13 13 13 13 13 13 13 13 13 13 13 13 13 13 13 13 13 13 13
11 11 11 11 11 11 11 12 12 12 12 12 12 12 12 12 12 12 12 12 12 13 13 13 13 13 13 13 13 13 13 13 13 13 13 13 13 13 13 13 13 13 13
10 11 11 11 11 11 11 11 11 11 11 11 11 11 11 12 12 12 12 12 12 12 12 12 12 12 12 12 13 13 13 12 12 12 13 13 13 13 13 13 13 13 13
9 10 10 10 10 10 10 11 11 11 11 11 11 11 11 11 11 11 12 12 12 12 12 12 12 12 12 12 12 12 12 12 12 12 12 13 13 13 13 13 13 13 13
9 9 9 10 10 10 10 10 10 10 11 11 11 11 11 11 11 11 11 11 11 11 11 11 11 11 12 11 12 12 12 12 12 12 12 12 13 13 13 13 13 13 13
8 8 9 9 9 9 10 10 10 10 10 10 10 11 10 11 11 11 11 11 11 11 11 11 11 11 11 11 11 11 11 11 11 12 12 12 12 12 12 12 12 12 12
7 7 8 8 9 9 9 9 9 9 10 10 10 10 10 10 10 10 10 10 10 11 11 10 10 11 11 11 11 11 11 11 11 11 11 12 12 12 12 12 12 12 12
6 6 7 7 8 8 8 9 9 9 9 9 9 10 10 10 10 10 10 10 10 10 10 10 10 10 10 10 10 10 11 11 11 11 11 11 11 12 12 12 12 12 12
5 6 6 6 7 7 8 8 8 8 8 9 9 9 9 9 9 9 9 9 10 10 10 10 10 10 10 10 10 10 10 10 10 11 11 11 11 11 11 12 11 11 11
5 5 5 6 6 7 7 7 7 8 8 8 8 8 9 9 9 9 9 9 9 9 9 9 9 9 9 9 9 9 10 10 10 10 10 10 10 10 11 11 11 11 11
4 4 5 5 6 6 6 7 7 7 7 7 8 8 8 8 8 8 8 8 8 8 8 8 8 9 9 9 9 9 9 9 9 10 10 10 10 10 10 10 10 11 11
3 4 4 4 5 5 6 6 6 6 6 7 7 7 8 8 8 8 8 8 8 8 8 8 8 8 8 8 8 8 8 8 9 9 9 9 10 10 10 10 10 10 10
2 3 3 3 4 4 4 5 5 5 5 6 6 7 7 7 7 7 7 7 7 7 7 7 7 7 7 7 7 7 7 8 8 8 9 9 9 9 9 9 9 10 10
1 2 2 2 3 3 3 4 4 4 5 5 6 6 6 6 6 6 7 7 6 6 6 7 7 7 7 7 7 7 7 8 7 8 8 8 8 8 9 9 9 9 9
0 1 1 2 2 2 3 3 3 3 4 4 5 5 5 5 6 6 6 6 6 6 6 6 6 6 6 6 6 6 7 7 7 7 7 8 8 8 8 8 9 9 9
-0 0 1 1 1 2 2 2 2 3 3 3 4 4 5 5 5 5 5 5 5 5 5 5 5 5 5 5 6 6 6 6 7 7 7 7 7 7 8 8 8 8 8
-1 -1 -0 0 1 1 1 1 2 2 2 2 3 3 4 4 4 4 4 4 4 4 4 5 5 5 5 5 5 5 6 6 6 6 6 6 6 7 7 7 7 8 8
Wind_Speed
1 2 3 4 5 6 7 8 8 9 9 10 9 9 9 8 8 8 8 8 7 8 8 8 9 9 9 10 11 11 11 11 12 12 13 13 13 12 12 11 10 13 14
2 1 3 4 5 7 7 8 8 8 9 9 9 8 8 8 8 8 7 7 8 8 8 8 9 9 9 10 10 11 11 11 11 11 12 12 12 11 11 10 9 12 13
3 3 4 5 6 6 7 8 8 8 8 8 8 8 8 8 8 8 7 8 8 9 9 9 9 9 9 9 10 10 10 10 10 8 8 9 10 10 10 10 11 12 12
4 4 5 6 6 6 7 7 8 8 8 8 8 8 8 8 7 7 7 7 8 9 9 9 9 9 9 9 9 9 9 9 7 5 6 7 9 10 9 9 11 11 11
4 5 6 7 6 6 7 7 7 7 7 7 7 7 7 7 7 7 7 8 8 9 9 9 9 8 8 9 8 8 8 8 6 5 6 7 7 9 9 9 10 10 11
5 5 7 7 7 6 6 6 6 6 6 6 6 6 6 6 6 7 7 8 8 8 9 9 8 8 8 8 8 7 7 6 5 5 5 5 6 9 8 9 9 9 9
5 6 6 7 7 7 6 5 5 6 5 5 5 5 5 5 6 7 7 7 8 8 7 8 8 8 8 7 7 7 6 3 4 4 4 5 6 8 8 8 8 8 8
5 6 5 7 7 7 7 6 5 5 5 4 4 4 4 5 6 6 6 7 7 7 7 7 7 7 7 7 6 6 5 2 3 4 4 4 6 7 7 7 8 8 8
6 6 6 6 5 5 6 6 6 5 5 5 5 4 4 5 6 6 6 6 6 6 6 6 6 6 6 6 6 5 4 1 2 2 3 3 5 6 6 7 7 7 8
7 7 7 7 6 4 3 5 5 5 4 4 4 4 3 4 5 5 5 5 5 5 5 5 5 6 6 5 5 4 3 1 1 2 2 3 5 5 6 6 6 7 8
6 7 7 7 7 6 3 3 3 4 4 3 3 4 3 2 3 3 4 5 5 4 4 5 5 5 5 4 4 3 2 1 1 1 2 4 3 4 5 5 6 7 7
7 7 6 7 7 7 5 3 2 2 3 2 2 2 1 1 1 1 3 4 4 4 4 4 4 3 3 2 2 2 1 1 0 1 2 3 3 3 4 4 5 7 7
6 7 7 6 7 6 5 4 2 2 2 2 3 2 1 0 1 1 2 3 3 3 2 3 2 1 1 1 1 1 0 0 0 0 1 2 2 2 3 4 5 6 7
7 8 7 8 6 6 5 4 3 2 2 2 2 2 2 1 0 1 0 1 1 1 1 1 1 1 1 1 1 1 0 1 0 0 1 2 2 2 3 4 5 5 6
8 9 9 8 7 6 5 4 4 3 2 2 2 2 2 2 1 0 0 1 1 1 1 1 1 1 1 1 1 1 1 1 1 1 0 2 1 2 2 4 4 5 6
9 9 9 9 8 7 5 4 4 3 2 2 2 2 2 2 1 1 1 1 1 1 1 1 1 1 1 1 1 1 2 2 2 2 2 1 2 2 3 4 5 5 6
8 8 9 8 9 7 6 5 4 4 3 2 2 2 2 2 2 2 1 1 1 1 2 2 1 1 1 1 1 2 2 2 3 3 3 2 2 3 4 4 5 5 6
8 8 8 8 9 8 6 5 4 4 3 2 1 2 2 2 2 2 2 1 1 2 2 2 2 2 2 2 2 2 2 2 3 3 3 3 3 3 4 5 5 6 6
8 8 9 9 9 8 7 5 4 4 4 3 2 2 2 2 2 2 2 2 2 2 2 2 3 2 2 2 2 2 2 2 2 3 3 3 2 3 3 4 5 5 6
8 8 8 8 9 8 6 4 3 4 4 4 3 3 3 3 3 3 2 2 2 2 2 3 3 3 3 2 2 2 2 3 2 3 3 2 2 2 2 2 3 4 4
9 9 9 9 9 8 6 5 4 4 4 4 4 4 3 3 3 3 3 3 3 3 3 4 3 4 3 2 2 2 2 3 3 3 3 3 2 2 2 3 3 3 3
10 10 9 9 8 8 6 6 5 5 4 4 5 5 4 4 4 3 3 3 3 3 4 4 4 3 3 4 3 3 2 3 3 3 3 3 3 3 3 3 3 4 4
10 10 9 9 8 8 8 6 5 4 4 4 5 4 5 5 4 4 4 4 4 4 4 5 5 5 4 4 4 4 3 4 2 3 4 4 4 3 3 3 3 4 4
10 9 9 8 8 8 8 6 7 5 5 6 6 5 6 5 5 4 5 5 5 4 5 5 5 5 6 6 5 5 5 3 3 3 4 4 4 4 4 3 4 4 4
9 8 8 8 8 8 8 7 6 6 6 6 6 7 6 5 5 5 5 5 5 5 6 6 6 6 6 7 6 4 4 4 5 5 5 5 4 4 4 5 4 4 5
8 8 8 9 8 8 8 7 7 8 8 8 7 7 6 4 5 5 6 6 6 5 6 6 6 8 7 8 7 6 5 5 5 5 6 6 6 4 4 4 5 5 5
Wind_Direction
33 38 56 85 98 103 102 99 95 92 92 92 95 94 92 91 90 89 88 87 86 91 92 96 100 99 97 97 95 94 96 95 95 92 92 93 95 96 96 96 100 94 91
10 60 81 90 104 107 107 103 98 95 94 92 94 93 90 87 85 83 86 84 83 85 90 93 96 97 96 96 96 95 97 97 98 96 101 99 96 96 97 87 81 95 96
29 56 91 88 97 104 105 102 99 98 96 94 94 94 92 89 84 79 81 83 85 84 86 88 89 93 94 97 98 97 99 100 101 107 122 112 106 102 100 98 95 100 99
36 56 74 76 87 94 98 99 98 99 97 94 94 94 92 89 86 80 80 83 84 83 83 82 84 87 92 96 101 101 102 104 106 131 122 109 111 110 108 106 107 106 102
46 52 60 65 72 86 89 93 97 98 97 95 93 91 92 92 87 80 79 80 84 84 82 80 81 85 90 94 99 104 106 111 121 131 111 109 108 112 112 109 110 109 104
47 47 54 57 65 68 82 86 91 97 99 97 95 93 92 94 91 84 77 79 83 87 87 85 85 84 92 97 97 100 108 127 148 120 114 117 116 115 116 114 113 113 112
49 38 52 51 60 60 61 75 86 87 93 98 97 96 94 94 92 86 78 79 83 85 89 92 89 84 89 98 99 97 97 120 135 118 114 116 115 119 124 122 122 119 122
50 40 46 49 53 57 55 55 65 73 77 88 95 95 97 95 93 85 79 80 83 86 86 92 97 93 89 93 98 96 92 108 133 125 121 119 117 127 132 130 127 127 127
43 39 34 35 43 53 56 49 49 58 70 73 80 83 89 89 87 83 80 80 83 84 87 91 95 95 92 90 93 89 81 54 131 124 127 124 125 134 134 136 134 129 130
35 30 24 20 21 26 46 49 43 48 60 72 74 75 81 95 95 87 83 79 82 82 82 87 90 95 95 90 90 89 95 164 138 129 129 120 126 141 142 141 142 135 134
24 23 17 11 9 6 8 37 39 46 49 69 89 85 93 106 110 108 83 79 81 86 87 82 86 94 101 100 98 105 149 165 148 117 110 101 126 149 157 151 150 143 142
6 8 10 8 4 0 1 11 25 34 39 35 53 76 98 108 108 106 108 101 92 91 93 88 90 107 134 127 127 153 160 164 134 116 112 106 135 153 161 159 156 157 154
359 2 1 2 3 1 1 359 11 13 18 14 23 29 16 85 115 99 120 129 120 119 113 103 124 127 145 141 170 187 138 75 35 91 136 129 153 171 175 169 163 161 157
2 1 359 360 359 360 359 0 355 5 6 8 3 9 2 357 359 97 153 192 176 166 154 167 176 152 169 179 196 191 200 249 272 49 98 143 177 201 196 183 171 167 165
360 358 356 357 355 352 358 356 355 348 350 345 357 359 352 346 339 303 225 217 222 204 198 227 225 197 183 199 217 219 243 256 251 230 121 106 181 210 210 199 184 178 175
355 353 354 354 351 351 352 349 341 335 328 327 348 347 345 337 326 320 289 275 241 219 220 233 232 235 222 224 232 238 244 259 252 237 241 187 198 215 220 218 206 193 189
351 350 352 350 349 347 345 341 339 330 327 326 329 319 335 337 315 285 282 269 265 239 222 217 219 234 229 227 242 249 248 249 258 251 249 241 220 209 213 217 211 202 197
353 352 352 352 349 345 339 335 333 329 326 317 295 293 317 323 305 289 285 275 271 249 228 222 216 215 224 229 241 249 249 243 256 263 255 244 238 226 208 209 211 204 199
356 353 353 353 349 343 335 330 330 336 328 317 300 308 301 284 282 282 281 284 257 248 237 233 222 215 222 227 243 252 257 257 254 253 250 251 246 238 217 177 185 190 196
359 357 355 354 352 345 339 333 332 336 332 330 320 314 300 292 278 277 285 281 268 254 240 236 229 222 225 222 237 258 270 263 249 244 238 235 236 243 230 206 185 172 184
3 1 358 357 356 353 346 338 324 321 316 319 316 302 292 287 276 273 288 279 271 256 248 237 232 224 222 211 222 257 270 257 246 240 240 232 223 232 235 225 214 198 188
1 358 356 356 354 352 346 335 321 311 302 304 318 308 292 283 275 272 268 260 257 256 252 246 229 230 230 213 214 213 227 237 230 243 242 240 236 226 223 228 224 220 217
0 356 352 351 351 351 347 340 334 325 311 310 312 304 303 290 273 273 264 263 255 248 245 245 239 232 228 226 222 218 217 224 230 222 231 235 233 232 228 223 226 229 224
354 351 350 348 351 353 349 345 341 329 313 307 309 305 301 292 274 269 265 260 252 249 244 240 240 242 228 228 229 242 253 248 225 218 222 230 239 243 243 234 227 230 232
350 349 349 348 351 351 346 340 333 323 313 308 309 308 301 293 278 268 264 261 253 251 247 244 243 243 234 230 227 233 244 244 243 240 240 231 235 245 248 246 240 237 235
352 352 351 351 347 345 341 336 330 320 317 313 311 308 302 294 286 278 272 262 254 251 248 246 243 241 240 237 232 230 232 231 232 235 239 231 235 243 249 251 245 239 238
Height
1544 1544 1544 1544 1545 1545 1546 1546 1546 1546 1546 1546 1546 1546 1546 1546 1547 1547 1547 1547 1547 1547 1547 1547 1547 1547 1547 1547 1547 1547 1547 1547 1547 1547 1548 1548 1548 1548 1548 1548 1549 1549 1549
1544 1544 1544 1545 1545 1546 1546 1546 1546 1547 1547 1547 1547 1547 1547 1547 1547 1548 1548 1548 1548 1548 1548 1548 1548 1548 1548 1548 1548 1548 1548 1549 1549 1549 1549 1549 1550 1550 1550 1550 1550 1551 1550
1544 1544 1545 1545 1546 1546 1547 1547 1547 1547 1547 1547 1547 1548 1548 1548 1548 1548 1548 1548 1548 1548 1548 1548 1548 1548 1549 1549 1549 1549 1550 1550 1550 1550 1551 1551 1551 1551 1551 1551 1551 1552 1552
1544 1544 1545 1545 1546 1546 1547 1547 1548 1548 1548 1548 1548 1548 1548 1548 1549 1549 1549 1549 1549 1549 1549 1549 1549 1549 1549 1549 1550 1550 1550 1551 1551 1552 1553 1553 1553 1553 1553 1553 1553 1553 1553
1544 1545 1545 1546 1546 1547 1547 1547 1548 1548 1548 1548 1548 1548 1548 1548 1549 1549 1549 1549 1549 1549 1549 1549 1549 1549 1549 1550 1550 1551 1551 1552 1552 1553 1553 1553 1554 1554 1554 1554 1554 1554 1554
1544 1545 1545 1546 1546 1547 1548 1548 1548 1548 1548 1548 1548 1548 1548 1548 1548 1549 1549 1549 1549 1549 1549 1549 1549 1549 1550 1550 1551 1551 1551 1552 1553 1554 1554 1554 1554 1554 1554 1555 1555 1555 1555
1545 1545 1545 1546 1546 1547 1547 1548 1548 1548 1548 1548 1548 1548 1548 1548 1548 1548 1548 1549 1549 1549 1549 1549 1549 1549 1550 1550 1551 1551 1552 1552 1553 1554 1554 1554 1554 1554 1555 1555 1556 1556 1556
1545 1545 1545 1546 1546 1547 1547 1547 1547 1548 1548 1548 1547 1547 1547 1547 1547 1547 1548 1548 1548 1548 1548 1549 1549 1549 1549 1550 1551 1551 1552 1552 1553 1554 1554 1554 1554 1555 1555 1555 1556 1556 1557
1545 1545 1545 1546 1546 1546 1547 1547 1547 1547 1547 1547 1547 1547 1547 1547 1547 1547 1547 1547 1548 1548 1548 1548 1548 1549 1549 1550 1550 1551 1552 1552 1554 1554 1554 1554 1554 1555 1555 1555 1556 1556 1557
1545 1545 1545 1545 1545 1545 1546 1546 1546 1546 1546 1546 1546 1546 1546 1546 1546 1546 1546 1547 1547 1547 1547 1547 1548 1548 1549 1549 1550 1550 1551 1552 1553 1553 1554 1554 1554 1554 1555 1555 1556 1556 1557
1544 1544 1544 1544 1544 1544 1545 1545 1545 1545 1545 1545 1545 1545 1545 1545 1545 1545 1546 1546 1546 1546 1546 1547 1547 1547 1548 1548 1549 1550 1551 1551 1552 1552 1553 1553 1553 1554 1554 1555 1555 1556 1556
1543 1543 1543 1543 1543 1543 1543 1543 1544 1544 1544 1544 1544 1544 1544 1544 1544 1544 1545 1545 1545 1545 1545 1546 1546 1547 1547 1548 1548 1549 1550 1550 1551 1551 1551 1551 1552 1553 1553 1554 1555 1555 1556
1543 1542 1542 1542 1542 1542 1541 1542 1542 1542 1542 1542 1542 1543 1543 1543 1543 1543 1543 1544 1544 1544 1544 1545 1545 1545 1546 1546 1547 1548 1548 1549 1549 1550 1550 1550 1551 1551 1552 1553 1554 1554 1555
1542 1542 1541 1541 1541 1540 1540 1540 1541 1541 1540 1540 1540 1541 1541 1541 1541 1541 1542 1542 1542 1543 1543 1543 1544 1544 1545 1545 1546 1546 1547 1547 1548 1548 1548 1549 1549 1550 1551 1552 1553 1553 1554
1541 1541 1540 1540 1539 1539 1539 1538 1538 1539 1539 1539 1539 1539 1539 1539 1539 1539 1540 1540 1541 1541 1541 1542 1542 1543 1543 1543 1544 1545 1545 1546 1546 1546 1547 1547 1548 1549 1549 1550 1551 1552 1552
1540 1539 1538 1538 1538 1537 1537 1536 1536 1536 1537 1537 1537 1537 1537 1537 1537 1537 1538 1538 1538 1539 1539 1540 1540 1541 1541 1541 1542 1542 1543 1544 1544 1544 1545 1545 1545 1546 1547 1548 1549 1550 1551
1538 1537 1536 1536 1535 1535 1535 1534 1534 1534 1534 1535 1534 1535 1534 1535 1535 1535 1535 1535 1536 1537 1537 1538 1538 1539 1539 1539 1539 1540 1541 1541 1542 1542 1543 1543 1543 1544 1545 1546 1547 1548 1549
1537 1536 1535 1534 1533 1533 1532 1532 1532 1531 1531 1532 1532 1532 1532 1532 1532 1532 1532 1533 1533 1534 1535 1535 1535 1536 1536 1536 1537 1538 1538 1538 1539 1540 1540 1541 1541 1542 1542 1543 1544 1546 1547
1536 1534 1533 1531 1531 1530 1530 1529 1529 1528 1528 1528 1529 1529 1529 1529 1529 1529 1530 1530 1530 1531 1532 1532 1533 1533 1533 1533 1534 1535 1535 1536 1536 1537 1538 1538 1539 1539 1540 1541 1542 1543 1544
1534 1533 1531 1530 1528 1528 1527 1527 1526 1526 1525 1525 1525 1525 1526 1526 1526 1527 1527 1527 1527 1528 1528 1528 1529 1530 1530 1531 1531 1532 1532 1533 1533 1534 1535 1535 1536 1536 1537 1538 1539 1540 1541
1533 1531 1529 1528 1526 1525 1524 1523 1523 1522 1522 1521 1522 1522 1522 1522 1523 1523 1523 1523 1524 1524 1525 1525 1525 1526 1527 1528 1528 1529 1529 1530 1530 1531 1532 1533 1533 1534 1534 1535 1536 1537 1538
1531 1529 1527 1526 1524 1523 1522 1521 1520 1519 1518 1518 1517 1518 1518 1518 1519 1519 1519 1519 1519 1520 1521 1521 1522 1522 1523 1524 1525 1526 1527 1528 1527 1527 1528 1529 1530 1531 1531 1532 1533 1534 1535
1530 1528 1526 1524 1522 1521 1519 1518 1517 1516 1515 1514 1514 1514 1514 1514 1514 1514 1515 1515 1515 1516 1516 1517 1518 1518 1519 1520 1522 1523 1524 1523 1524 1524 1524 1525 1526 1527 1528 1528 1529 1530 1531
1529 1527 1524 1522 1521 1519 1517 1516 1515 1513 1512 1510 1510 1509 1509 1509 1510 1510 1510 1510 1511 1511 1512 1512 1514 1514 1515 1516 1517 1519 1520 1520 1521 1520 1521 1522 1522 1523 1524 1525 1525 1526 1527
1528 1526 1523 1521 1519 1517 1515 1513 1512 1510 1508 1507 1506 1505 1505 1505 1505 1505 1505 1505 1506 1506 1507 1508 1509 1510 1511 1512 1513 1513 1514 1515 1516 1517 1516 1517 1518 1519 1520 1521 1521 1522 1523
1527 1524 1522 1519 1517 1515 1513 1511 1509 1507 1505 1503 1502 1501 1501 1500 1500 1500 1500 1500 1500 1501 1502 1502 1503 1505 1506 1507 1508 1509 1510 1511 1512 1512 1513 1513 1514 1514 1515 1516 1517 1518 1518